Showing default

LARES-2, 53105

Orbit data source: Space-Track

LARES-2, 53105 is a payload satellite owned by ASI (IT) that was launched on Wed, 13 Jul 2022 UTC via a VEGA C launch vehicle from the French Guiana (FRGUI). Payloads include a variety of satellites, spacecraft, and rockets equipped with specific instruments for various scientific and technological missions. These include communications satellites like Starlink; space stations such as the ISS; scientific satellites like the Hubble; Earth observation satellites from companies like Planet Labs, Umbra, and HawkEye 360; GPS; miniature CubeSats for education and research; and military/defense satellites.

Loading next visibility...
LARES-2 details
Identifier
53105, 2022-080A
Orbit
Active
Last TLE update4 days ago
Origin
Flag of ITASI (IT)
ManufacturerOHB-I
MissionOperational Civil Technology
Bus & MotorLARES, Unknown motor
Mass295 kg wet, 295 kg dry
Launch date (UTC)
2022-07-13 (3 years ago)
Launch vehicle
VEGA C
Launch site
French Guiana (FRGUI)
Object type
Payload
Rocket body
Debris
Shape & HBRSphere, 0.42 m
Radar Cross Section0.139 m², Medium (>0.1 m² and < 1m²)

Expand to show TLE details & history

TLE from 4 days ago
0 LARES-2
1 53105U 22080A   25022.29558976 -.00000006  00000-0  00000-0 0  9995
2 53105  70.1340 120.5527 0004818  87.4902 272.6277  6.38965152 59028
Epoch: 2025-01-22T07:05Z
Definitive object data (Epoch: 2025-01-22T07:05:38.955Z)
Latitude-0.00002°
Longitude-107.74667°
Altitude5,890.315 km
Speed5.701 km/s
True Right ascension08h 02m 13s
True Declination0° 00' 00"
Sunlit
Object was in full shadow at TLE epoch
Visualization TLE readout
Latitude-38.68025°
Longitude87.78927°
Altitude5,907.039 km
Speed5.696 km/s
Apparent Right ascension20h 44m 19s
Apparent Declination-68° 01' 06"
Sunlit
Object is in daylight
Visualization observer readout
Local Sidereal Time21:23:43
Azimuth183.866° SSW
Elevation-18.19°
Doppler factor1
Orbital elements
Apogee altitude5,893.947 km
Perigee altitude5,882.127 km
Semi-major axis12,266.174 km
Eccentricity0.0004818
Inclination70.134°
RAAN120.5527°
Arg. of periapsis87.4902°
True anomaly272.57255°
Mean anomaly272.6277°
Eccentric anomaly272.60012°
Mean motion1.59764 °/min
BSTARUnknown
Orbital period225.33 mins
Loading maneuver chart data...
Loading historical data...
Loading historical data...
Loading historical data...
Loading historical data...
Loading historical data...
Loading historical data...
Loading historical data...

LARES-2 Visibility forecast

Observer location: undefined°, undefined

Span
Click to sort rows by Start time (UTC) header in descending order
Start Az.
Max El. time (UTC)
Max El. Az.
Max El.
End time (UTC)
End Az.
53 mins2025-01-26 04:57:41.404Z148.971° SSE2025-01-26 05:24:41.404Z87.34° E33.267°2025-01-26 05:50:41.404Z28.957° NE
63 mins2025-01-26 08:47:41.404Z227.024° WSW2025-01-26 09:17:41.404Z304.961° NW40.858°2025-01-26 09:50:41.404Z31.845° NE
59 mins2025-01-26 13:07:41.404Z310.848° NW2025-01-26 13:36:41.404Z19.354° NNE31.073°2025-01-26 14:06:41.404Z89.319° E
62 mins2025-01-26 17:12:41.404Z333.754° NNW2025-01-26 17:42:41.404Z258.689° W44.726°2025-01-26 18:14:41.404Z170.397° S
|